Weatherford, Texas, United States (76085)
Lat: 32.76N, Lon: 97.8W
Wx Zone: TXZ117
Local Info
Past Weather Observations for Tuesday, October 21, 2014

NOTE: This archive is for the closest National Weather Service station to Weatherford. Information may differ from the station used for current weather conditions.

Click here for Long-term Archive

Time Weather Temperature Dewpoint Humidity Pressure Winds Precip Visibility
23:53
Clear
61°F / 16°C 54°F / 12°C 77% 30.06 in
(1018 mb)
SE 6.9 mph
(SE 11 kph)
- 10SM
22:53
Clear
63°F / 17°C 54°F / 12°C 73% 30.06 in
(1018 mb)
SE 6.9 mph
(SE 11 kph)
- 10SM
21:53
Clear
63°F / 17°C 52°F / 11°C 68% 30.06 in
(1018 mb)
SE 6.9 mph
(SE 11 kph)
- 10SM
20:53
Clear
64°F / 18°C 52°F / 11°C 64% 30.06 in
(1018 mb)
SE 6.9 mph
(SE 11 kph)
- 10SM
19:53
Clear
66°F / 19°C 52°F / 11°C 60% 30.04 in
(1017 mb)
SE 6.9 mph
(SE 11 kph)
- 10SM
18:53
Clear
70°F / 21°C 50°F / 10°C 50% 30.04 in
(1017 mb)
SE 6.9 mph
(SE 11 kph)
- 10SM
17:53
Clear
73°F / 23°C 50°F / 10°C 44% 30.01 in
(1016 mb)
SE 6.9 mph
(SE 11 kph)
- 10SM
16:53
Clear
81°F / 27°C 48°F / 9°C 32% 30.01 in
(1016 mb)
SE 9.2 mph
(SE 15 kph)
- 10SM
15:53
Clear
81°F / 27°C 48°F / 9°C 32% 30.01 in
(1016 mb)
SE 10.4 mph
(SE 17 kph)
- 10SM
14:53
Clear
82°F / 28°C 45°F / 7°C 26% 30.01 in
(1016 mb)
S 11.5 mph
(S 19 kph)
- 10SM
13:53
Clear
81°F / 27°C 52°F / 11°C 37% 30.04 in
(1017 mb)
SE 8.1 mph
(SE 13 kph)
- 10SM
12:53
Clear
79°F / 26°C 55°F / 13°C 45% 30.06 in
(1018 mb)
ESE 6.9 mph
(ESE 11 kph)
- 10SM
11:53
Clear
79°F / 26°C 55°F / 13°C 45% 30.09 in
(1019 mb)
E 10.4 mph
(E 17 kph)
- 10SM
10:53
Clear
75°F / 24°C 57°F / 14°C 54% 30.09 in
(1019 mb)
SSE 5.8 mph
(SSE 9 kph)
- 8SM
09:53
Clear
Hazy
72°F / 22°C 59°F / 15°C 65% 30.12 in
(1020 mb)
SE 5.8 mph
(SE 9 kph)
- 6SM
08:53
Clear
Hazy
66°F / 19°C 59°F / 15°C 78% 30.12 in
(1020 mb)
SE 3.5 mph
(SE 6 kph)
- 5SM
08:06
Clear
Fog And Mist
63°F / 17°C 59°F / 15°C 88% 30.12 in
(1020 mb)
SE 3.5 mph
(SE 6 kph)
- 3SM
07:53
Clear
Fog And Mist
63°F / 17°C 59°F / 15°C 88% 30.09 in
(1019 mb)
Calm - 2 1/2SM
07:22
Clear
Fog And Mist
59°F / 15°C 55°F / 13°C 88% 30.09 in
(1019 mb)
Calm - 2 1/2SM
07:01
Clear
Fog And Mist
57°F / 14°C 55°F / 13°C 94% 30.09 in
(1019 mb)
Calm - 1 1/2SM
06:53
Clear
Fog And Mist
57°F / 14°C 55°F / 13°C 94% 30.09 in
(1019 mb)
Calm - 2SM
06:50
Clear
Fog And Mist
57°F / 14°C 55°F / 13°C 94% 30.09 in
(1019 mb)
Calm - 2SM
06:26
Clear
Fog And Mist
55°F / 13°C 54°F / 12°C 94% 30.06 in
(1018 mb)
Calm - 4SM
05:53
Clear
Fog And Mist
57°F / 14°C 55°F / 13°C 94% 30.06 in
(1018 mb)
Calm - 2 1/2SM
05:51
Clear
Fog And Mist
57°F / 14°C 55°F / 13°C 94% 30.06 in
(1018 mb)
Calm - 2 1/2SM
04:53
Clear
Fog And Mist
57°F / 14°C 55°F / 13°C 94% 30.06 in
(1018 mb)
Calm - 3SM
03:53
Clear
Fog And Mist
59°F / 15°C 55°F / 13°C 88% 30.06 in
(1018 mb)
Calm - 4SM
02:53
Clear
Fog And Mist
61°F / 16°C 57°F / 14°C 88% 30.04 in
(1017 mb)
NNE 3.5 mph
(NNE 6 kph)
- 5SM
01:53
Clear
Fog And Mist
61°F / 16°C 57°F / 14°C 88% 30.04 in
(1017 mb)
Calm - 5SM
00:53
Clear
63°F / 17°C 57°F / 14°C 83% 30.04 in
(1017 mb)
SSE 4.6 mph
(SSE 7 kph)
- 7SM
Time Weather Temperature Dewpoint Humidity Pressure Winds Precip Visibility


Weather for websites

WeatherForYou.com, LLC is not responsible for any damages or problems caused by this service. Current weather conditions are obtained from the closest station including government and personal stations which may have varying degrees of accuracy. Weather forecasts are derived from the NOAA NDFD. Like all things, this site belongs to Jesus Christ... He just trusts me to maintain it. If you have any questions or comments email webmaster@weatherforyou.com

Copyright © 2014, WeatherForYou.com LLC. All rights reserved.